STARLINK-5567, 55377

Orbit data source: Space-Track

STARLINK-5567, 55377 is a payload satellite owned by SpaceX/Seattle (US) in LEO that was launched on Thu, 26 Jan 2023 UTC via an FALCON 9 launch vehicle from the Air Force Eastern Test Range (AFETR). Payload-class satellites include a variety of spacecraft equipped with specific instruments for various scientific and technological missions. These include communications satellites like Starlink; space stations such as the ISS; scientific satellites like the Hubble; Earth observation satellites from companies like Planet Labs, Umbra, and HawkEye 360; GPS; miniature CubeSats for education and research; and military/defense satellites.

Loading next visibility...
Identifier
55377, 2023-013AY
Orbit
LEO
Country
Flag of USUS
Related business
Manufacturer
SpaceX/Seattle
Mission
Operational Commercial Communications
Bus & Motor
STARLINK, Unknown motor
Mass
305 kg wet, ~290 kg dry
Launch date (UTC)
2023-01-26 (3 years ago)
Launch vehicle
FALCON 9
Launch site
Air Force Eastern Test Range (AFETR)
Object type
Payload
Rocket body
Debris
Shape & HBR
Box + 1 Pan, 10.1 m
Radar Cross Section
13.562 m², Large (>1 m²)

Expand to show TLE details & history
Last TLE update: 20 hours ago

TLE from 20 hours ago
0 STARLINK-5567
1 55377U 23013AY  25349.19014107 -.00004014  00000-0 -28241-3 0  9993
2 55377  43.0059  52.0247 0001372 261.1332  98.9355 15.02513290158855
Epoch: 2025-12-15T04:33Z
TLE epoch observation values (Epoch: 2025-12-15T04:33:48.188Z)
Latitude
-0.00002°
Longitude
-100.51837°
Altitude
559.076 km
Speed
7.584 km/s
True Right ascension
03h 28m 05s
True Declination
0° 00' 00"
Sunlit
Object was in full shadow at epoch
Visualization orbit readout
Latitude
Unknown
Longitude
Unknown
Altitude
Unknown
Speed
Unknown
Apparent Right ascension
Unknown
Apparent Declination
Unknown
Sunlit
N/A
Visualization observer readout
Local Sidereal Time
22:53:56
Azimuth
Unknown
Elevation
Unknown
Doppler factor
Unknown
Orbital elements
Apogee altitude
562.024 km
Perigee altitude
560.12 km
Semi-major axis
6,939.209 km
Eccentricity
0.00014
Inclination
43.0059°
RAAN
52.0247°
Arg. of periapsis
261.1332°
True anomaly
98.95103°
Mean anomaly
98.9355°
Eccentric anomaly
98.94327°
Mean motion
3.75473 °/min
Orbital period
95.88 mins
BSTAR
-0.00028241
Loading maneuver chart data...
Computing Atmospheric mass density...
Loading historical data...
Loading historical data...
Loading historical data...
Loading historical data...
Loading historical data...
Loading historical data...
Loading historical data...

Documentation

Showing up to 5 results
|